[[{"header":{"parameterUnit":"m.s-1","parameterCategory":1,"la1":30.2991,"la2":30.254,"lo1":-89.0895,"lo2":-89.0444,"dy":0.0017,"dx":0.0017,"nx":28,"ny":28,"refTime":"2025-07-24T09:00:00:Z","depth":0,"parameterNumber":2,"parameterNumberName":"U-component_of_WINDS"},"data":[0,0,0,0,0,0,0,0,0,0,0,0,0,0,0,0,0,0,0,0,0,0,0,0,0,0,0,0,0,0,0,0,0,0,0,0,0,0,0,0,0,0,0,0,0,0,0,0,0,0,0,0,0,0,0,0,0,0,-1.0949,-1.095,0,-1.0996,-1.0997,-1.0997,-1.1012,-1.1012,-1.1012,-1.1011,-1.106,-1.1062,-1.1063,0,0,0,0,0,0,0,0,0,0,0,0,0,-1.0873,-1.0874,-1.0949,-1.095,-1.095,-1.0996,-1.0997,-1.0997,-1.1012,-1.1012,-1.1012,-1.1011,-1.106,-1.1061,-1.1063,0,0,0,0,0,0,0,0,0,0,0,0,0,-1.0912,-1.0875,-1.0949,-1.0963,-1.0965,-1.0996,-1.0997,-1.0998,-1.1012,-1.1012,-1.1012,-1.1011,-1.1059,-1.1061,-1.1064,-1.1084,0,0,-1.107,-1.1071,0,0,0,0,0,0,0,0,-1.0909,-1.0914,-1.096,-1.0962,-1.0964,-1.0998,-1.0988,-1.1027,-1.1012,-1.0994,-1.1011,-1.1011,-1.104,-1.1044,-1.1053,-1.1087,-1.1089,-1.1071,-1.1072,-1.1073,-1.1074,0,0,0,0,0,0,0,-1.0907,-1.0912,-1.0968,-1.0961,-1.0963,-1.0967,-1.0973,-1.0995,-1.1018,-1.0996,-1.0997,-1.1002,-1.1041,-1.1051,-1.1054,-1.1089,-1.1071,-1.1073,-1.1074,-1.1075,-1.1143,-1.1143,0,0,0,0,0,0,-1.0901,-1.091,-1.0966,-1.0969,-1.0935,-1.0969,-1.0975,-1.0987,-1.1018,-1.1022,-1.1003,-1.1003,-1.1047,-1.1052,-1.1056,-1.1083,-1.1073,-1.1075,-1.1076,-1.1142,-1.1143,-1.1143,0,0,0,0,0,0,-1.09,-1.0906,-1.0964,-1.094,-1.0948,-1.0971,-1.0985,-1.0989,-1.0999,-1.1023,-1.1028,-1.1009,-1.1047,-1.1053,-1.1077,-1.1085,-1.1076,-1.1078,-1.1142,-1.1143,-1.1143,-1.1136,0,0,0,0,0,0,-1.0898,-1.0906,-1.0913,-1.094,-1.0949,-1.0984,-1.0985,-1.099,-1.1003,-1.1003,-1.103,-1.1034,-1.1047,-1.1074,-1.108,-1.1088,-1.108,-1.1141,-1.1142,-1.1143,-1.1136,-1.1137,-1.1137,0,0,0,0,0,-1.0895,-1.091,-1.0914,-1.092,-1.0959,-1.0985,-1.099,-1.1004,-1.1003,-1.1011,-1.1027,-1.1033,-1.1083,-1.1076,-1.1083,-1.1092,-1.1141,-1.1142,-1.1143,-1.1136,-1.1137,-1.1137,0,0,0,0,0,0,-1.0883,-1.0913,-1.0918,-1.0942,-1.0961,-1.0987,-1.0998,-1.1005,-1.1024,-1.1024,-1.1042,-1.1048,-1.1071,-1.1084,-1.1076,-1.1114,-1.1112,-1.1115,-1.1105,-1.1106,-1.1106,-1.1103,-1.1082,0,0,0,0,0,-1.0883,-1.0901,-1.0927,-1.0945,-1.0955,-1.0975,-1.0986,-1.0996,-1.1016,-1.1024,-1.1042,-1.1061,-1.1081,-1.1094,-1.1114,-1.1138,-1.1144,-1.1148,-1.1148,-1.1149,-1.1151,-1.1165,-1.1167,-1.1147,-1.1147,-1.1147,0,0,-1.0884,-1.0903,-1.0913,-1.0944,-1.0959,-1.0978,-1.0981,-1.1001,-1.1015,-1.1027,-1.1051,-1.1065,-1.1088,-1.1112,-1.1124,-1.1124,-1.1157,-1.115,-1.115,-1.1152,-1.1166,-1.1168,-1.117,-1.1147,-1.1147,-1.1147,0,0,-1.0895,-1.0911,-1.0928,-1.0944,-1.0968,-1.0981,-1.0985,-1.1011,-1.102,-1.1045,-1.1055,-1.1072,-1.1106,-1.1122,-1.1135,-1.1152,-1.1159,-1.1158,-1.1162,-1.1176,-1.1177,-1.1179,-1.1185,-1.1188,-1.116,-1.116,-1.116,0,-1.0893,-1.0921,-1.0936,-1.0956,-1.0969,-1.0981,-1.0999,-1.1014,-1.1043,-1.1052,-1.1051,-1.1095,-1.1111,-1.114,-1.1144,-1.1154,-1.116,-1.1155,-1.1176,-1.1177,-1.1179,-1.1186,-1.1188,-1.116,-1.116,-1.116,-1.116,0,-1.0918,-1.0937,-1.0949,-1.0977,-1.0991,-1.101,-1.1028,-1.1041,-1.105,-1.1063,-1.1089,-1.1109,-1.1133,-1.114,-1.1149,-1.1171,-1.117,-1.1172,-1.1171,-1.118,-1.1187,-1.119,-1.116,-1.116,-1.116,-1.116,0,0,-1.0923,-1.0959,-1.0963,-1.0976,-1.1003,-1.1019,-1.1038,-1.1062,-1.1073,-1.1093,-1.111,-1.1139,-1.1141,-1.1156,-1.1166,-1.1178,-1.1192,-1.1179,-1.118,-1.1181,-1.1217,-1.1215,-1.1218,-1.1196,-1.1197,-1.1197,-1.1215,0,-1.0938,-1.0973,-1.0987,-1.1015,-1.1034,-1.1046,-1.1063,-1.1082,-1.1095,-1.1113,-1.1128,-1.1148,-1.115,-1.1159,-1.1171,-1.1187,-1.1199,-1.1186,-1.1212,-1.1213,-1.1207,-1.1221,-1.122,-1.1236,-1.1218,-1.1218,-1.1219,0,-1.096,-1.0979,-1.101,-1.1035,-1.1043,-1.1058,-1.1082,-1.1099,-1.112,-1.1129,-1.1145,-1.1155,-1.1177,-1.1174,-1.1204,-1.1195,-1.1206,-1.1216,-1.1217,-1.122,-1.1217,-1.1225,-1.1242,-1.1244,-1.1223,-1.1223,-1.1222,0,-1.0961,-1.0995,-1.1018,-1.1028,-1.1059,-1.1069,-1.1082,-1.1103,-1.1117,-1.1137,-1.1146,-1.1169,-1.1181,-1.1199,-1.1215,-1.1211,-1.1244,-1.1242,-1.1252,-1.1251,-1.1258,-1.1258,-1.1277,-1.1265,-1.1265,-1.1265,-1.1265,0,-1.0976,-1.0994,-1.1019,-1.1033,-1.1054,-1.107,-1.1091,-1.1105,-1.1124,-1.1141,-1.1152,-1.1168,-1.1188,-1.1207,-1.122,-1.1243,-1.1248,-1.1256,-1.126,-1.1256,-1.1255,-1.1264,-1.1263,-1.1266,-1.1266,-1.1265,-1.1265,0,-1.0981,-1.0998,-1.1024,-1.105,-1.1057,-1.1072,-1.1095,-1.1109,-1.1123,-1.1144,-1.115,-1.1172,-1.1195,-1.1213,-1.1242,-1.1251,-1.1275,-1.1278,-1.1268,-1.1269,-1.1278,-1.1278,-1.1304,-1.1309,-1.1294,-1.1294,-1.1294,0,-1.099,-1.1004,-1.1032,-1.1045,-1.1058,-1.1077,-1.1091,-1.1108,-1.1122,-1.1148,-1.116,-1.1183,-1.1203,-1.1238,-1.1257,-1.128,-1.1284,-1.1292,-1.1287,-1.1283,-1.1285,-1.1284,-1.1285,-1.1292,-1.1292,-1.1292,-1.1292,0,-1.1004,-1.1012,-1.1032,-1.1054,-1.107,-1.1089,-1.1108,-1.1117,-1.1138,-1.1153,-1.1177,-1.1192,-1.1222,-1.1245,-1.127,-1.1284,-1.1292,-1.1294,-1.1297,-1.1293,-1.1287,-1.1291,-1.127,-1.1293,-1.1293,-1.1293,-1.1293,-1.1293,-1.1012,-1.1025,-1.1047,-1.1069,-1.1085,-1.1102,-1.1117,-1.1133,-1.1152,-1.1178,-1.1187,-1.1211,-1.1233,-1.1267,-1.1281,-1.13,-1.1301,-1.1306,-1.1307,-1.1308,-1.1308,-1.1283,-1.1305,-1.1305,-1.1305,-1.1305,-1.1305,0,-1.1027,-1.1042,-1.1061,-1.1088,-1.1105,-1.111,-1.1132,-1.1146,-1.1167,-1.1186,-1.1205,-1.1232,-1.1255,-1.1275,-1.1299,-1.1311,-1.1315,-1.1316,-1.1316,-1.1319,-1.1306,-1.1301,-1.1313,-1.1313,-1.1313,-1.1313,-1.1313,-1.1313,-1.1037,-1.106,-1.1071,-1.1102,-1.1117,-1.114,-1.1152,-1.1169,-1.1184,-1.1214,-1.1233,-1.1246,-1.1266,-1.1291,-1.1313,-1.1318,-1.1326,-1.1327,-1.1333,-1.1321,-1.132,-1.1319,-1.1314,-1.1329,-1.1329,-1.1345,-1.1345,-1.1345]},{"header":{"parameterUnit":"m.s-1","parameterCategory":1,"la1":30.2991,"la2":30.254,"lo1":-89.0895,"lo2":-89.0444,"dy":0.0017,"dx":0.0017,"nx":28,"ny":28,"refTime":"2025-07-24T09:00:00:Z","depth":0,"parameterNumber":3,"parameterNumberName":"V-component_of_WINDS"},"data":[0,0,0,0,0,0,0,0,0,0,0,0,0,0,0,0,0,0,0,0,0,0,0,0,0,0,0,0,0,0,0,0,0,0,0,0,0,0,0,0,0,0,0,0,0,0,0,0,0,0,0,0,0,0,0,0,0,0,6.0921,6.0922,0,6.0982,6.0983,6.0983,6.0898,6.0895,6.0892,6.0889,6.0947,6.0951,6.0956,0,0,0,0,0,0,0,0,0,0,0,0,0,6.0724,6.0728,6.0921,6.0922,6.0922,6.0982,6.0983,6.0983,6.0899,6.0895,6.0891,6.0888,6.0946,6.0951,6.0956,0,0,0,0,0,0,0,0,0,0,0,0,0,6.08,6.073,6.0921,6.0887,6.0885,6.0982,6.0983,6.0984,6.0899,6.0895,6.089,6.0886,6.0944,6.095,6.0957,6.1088,0,0,6.0977,6.0979,0,0,0,0,0,0,0,0,6.0796,6.0807,6.0891,6.089,6.0887,6.0928,6.0934,6.1018,6.09,6.0894,6.0889,6.0884,6.0944,6.095,6.0971,6.109,6.1093,6.0977,6.0981,6.0984,6.0986,0,0,0,0,0,0,0,6.079,6.0804,6.0945,6.0893,6.089,6.0867,6.0873,6.095,6.0943,6.0894,6.0888,6.0897,6.0942,6.0965,6.0972,6.1094,6.0977,6.0983,6.0987,6.0989,6.1318,6.1323,0,0,0,0,0,0,6.079,6.08,6.0943,6.0947,6.0829,6.0874,6.0881,6.0919,6.0942,6.0942,6.09,6.0892,6.0956,6.0965,6.0974,6.1125,6.0984,6.099,6.0994,6.1313,6.1319,6.1324,0,0,0,0,0,0,6.0786,6.0804,6.094,6.0872,6.0887,6.0882,6.0926,6.0923,6.0946,6.0947,6.0945,6.0926,6.0953,6.0965,6.1059,6.1126,6.0993,6.0999,6.1308,6.1315,6.1322,6.1431,0,0,0,0,0,0,6.0781,6.0803,6.0854,6.0874,6.0891,6.1027,6.0931,6.0927,6.0958,6.0948,6.0971,6.097,6.095,6.105,6.1066,6.1133,6.1004,6.1301,6.1311,6.1319,6.1421,6.1441,6.1458,0,0,0,0,0,6.0774,6.0883,6.0857,6.0875,6.0956,6.1031,6.1041,6.1018,6.0964,6.1014,6.1014,6.0969,6.1117,6.106,6.1077,6.1147,6.1297,6.1308,6.1319,6.1413,6.1437,6.1458,0,0,0,0,0,0,6.087,6.0885,6.0857,6.0975,6.1003,6.1017,6.1079,6.1045,6.1087,6.1076,6.1044,6.105,6.115,6.1158,6.1095,6.1273,6.1198,6.1212,6.1264,6.1286,6.1304,6.1299,6.1009,0,0,0,0,0,6.0905,6.0967,6.0976,6.1079,6.1094,6.1085,6.1117,6.1096,6.1123,6.1134,6.1141,6.1167,6.1218,6.1253,6.1301,6.1423,6.1424,6.1479,6.1497,6.1512,6.1525,6.1585,6.1609,6.136,6.136,6.1359,0,0,6.0978,6.0994,6.1034,6.1099,6.1118,6.1179,6.1095,6.1165,6.121,6.1144,6.1233,6.1239,6.1266,6.1373,6.1421,6.1383,6.1594,6.1526,6.1538,6.1542,6.1599,6.1622,6.1643,6.1367,6.1366,6.1365,0,0,6.1142,6.1162,6.1248,6.1268,6.1298,6.1291,6.1312,6.1331,6.1332,6.1422,6.1372,6.1424,6.1515,6.1535,6.1557,6.1726,6.1684,6.1742,6.1837,6.1896,6.1916,6.1933,6.199,6.2011,6.1755,6.1755,6.1756,0,6.1228,6.1321,6.1296,6.1369,6.1397,6.1341,6.1426,6.1447,6.1491,6.151,6.1468,6.1578,6.1593,6.1702,6.1743,6.1764,6.1784,6.1738,6.1916,6.1933,6.1948,6.2001,6.2023,6.1762,6.1761,6.1761,6.176,0,6.1423,6.1489,6.1554,6.1598,6.1634,6.1713,6.1697,6.1736,6.1712,6.1708,6.1797,6.1813,6.1861,6.1886,6.1864,6.1992,6.1967,6.1921,6.1844,6.1979,6.2028,6.2049,6.1771,6.1769,6.1767,6.1765,0,0,6.1649,6.1677,6.1701,6.1719,6.1746,6.1795,6.187,6.1918,6.195,6.1982,6.2041,6.2118,6.2075,6.21,6.2079,6.2132,6.226,6.2079,6.2079,6.2109,6.2397,6.243,6.2454,6.2234,6.2238,6.2241,6.2394,0,6.181,6.194,6.1918,6.2044,6.2101,6.2048,6.2112,6.2135,6.2133,6.218,6.2177,6.2231,6.2172,6.2186,6.2236,6.2234,6.2317,6.2223,6.2286,6.2288,6.2278,6.248,6.2515,6.2659,6.2413,6.2417,6.2419,0,6.2015,6.2053,6.2184,6.22,6.2223,6.2282,6.2322,6.2369,6.2392,6.2386,6.2414,6.2382,6.2453,6.2378,6.2474,6.241,6.2435,6.2437,6.2442,6.2445,6.236,6.2485,6.2705,6.2725,6.245,6.2448,6.2445,0,6.2161,6.2246,6.2335,6.2352,6.2373,6.2415,6.2425,6.2444,6.2474,6.2509,6.2526,6.257,6.2592,6.2625,6.2605,6.2553,6.2703,6.2627,6.2698,6.2698,6.273,6.2728,6.2953,6.2751,6.2751,6.2751,6.275,0,6.2341,6.2422,6.24,6.2454,6.2542,6.2516,6.2603,6.2607,6.2624,6.2676,6.2633,6.2683,6.2655,6.2701,6.2686,6.2765,6.2777,6.2772,6.2767,6.2775,6.2775,6.2788,6.2776,6.2756,6.2755,6.2754,6.2753,0,6.2519,6.2508,6.26,6.2613,6.2617,6.2682,6.2691,6.274,6.2734,6.28,6.2814,6.2805,6.2857,6.2841,6.2897,6.2887,6.2986,6.297,6.2979,6.2973,6.3044,6.3037,6.3284,6.3313,6.3095,6.3098,6.3099,0,6.2633,6.2694,6.2712,6.2744,6.2758,6.2811,6.284,6.2815,6.2847,6.2877,6.2921,6.297,6.3007,6.3092,6.3089,6.3131,6.3113,6.3197,6.3119,6.3124,6.311,6.3105,6.311,6.3211,6.3214,6.3216,6.3218,0,6.2835,6.2826,6.2871,6.2913,6.2949,6.2981,6.3008,6.3037,6.3014,6.3051,6.3104,6.3133,6.3189,6.3237,6.3274,6.3283,6.3246,6.3242,6.326,6.3267,6.3269,6.3265,6.3018,6.3236,6.3234,6.3233,6.3232,6.3231,6.2982,6.3032,6.3052,6.3102,6.3121,6.3147,6.3192,6.3192,6.3236,6.3281,6.3263,6.3323,6.3342,6.3388,6.3402,6.3447,6.3414,6.3441,6.3448,6.3454,6.3461,6.3264,6.3454,6.3453,6.3453,6.3452,6.3452,0,6.3179,6.3189,6.3235,6.3275,6.3313,6.3276,6.3304,6.3338,6.3392,6.3413,6.345,6.3509,6.3554,6.3554,6.3596,6.3631,6.3615,6.3643,6.3638,6.364,6.349,6.3468,6.3655,6.3655,6.3655,6.3655,6.3655,6.3655,6.3286,6.3368,6.3361,6.345,6.3458,6.3517,6.3536,6.3558,6.3575,6.3642,6.368,6.368,6.3692,6.3733,6.3772,6.3771,6.3787,6.382,6.3812,6.3671,6.3651,6.3632,6.3611,6.3825,6.3825,6.3958,6.396,6.3961]}]]